Siemreap, Cambodia

11:01 AM +07 on February 26, 2018 (GMT +0700)
Siem Reap

Weather History for VDSR - May, 2013

Change the Weather History Date:

Thursday, May 16, 2013

  Actual Average Record
Temperature  
Mean Temperature 90 °F -  
Max Temperature 100 °F - - ()
Min Temperature 80 °F - - ()
Cooling Degree Days 25    
Growing Degree Days 40 (Base 50)    
Moisture  
Dew Point 75 °F    
Average Humidity 68    
Maximum Humidity 94    
Minimum Humidity 37    
Precipitation  
Precipitation 0.00 in - - ()
Sea Level Pressure  
Sea Level Pressure 29.68 in    
Wind  
Wind Speed 5 mph ()    
Max Wind Speed 20 mph    
Max Gust Speed 30 mph    
Visibility 6.0 miles    
Events Rain , Thunderstorm    
T = Trace of Precipitation, MM = Missing Value Source: Averaged Metar Reports

Daily Weather History Graph

Daily Weather History Graph

Search for Another Location

Airport or City:

Trip Planner

Search our weather history database for the weather conditions in past years. The results will help you decide how hot, cold, wet, or windy it might be!

Date:

Astronomy

May. 16, 2013 Rise Set
Actual Time 5:38 AM +07 6:23 PM +07
Civil Twilight 5:15 AM +07 6:46 PM +07
Nautical Twilight 4:49 AM +07 7:12 PM +07
Astronomical Twilight 4:22 AM +07 7:40 PM +07
Moon 10:28 AM +07 (5/16) 11:17 PM +07 (5/16)
Length of Visible Light 13h 30m
Length of Day
12h 45m
Waxing Crescent, 31% of the Moon is Illuminated
May 16
Waxing Crescent
May 18
First Quarter
May 25
Full
Jun 1
Last Quarter
Jun 8
New

Hourly Weather History & Observations

Time (+07) Temp. Heat Index Dew Point Humidity Pressure Visibility Wind Dir Wind Speed Gust Speed Precip Events Conditions
12:00 AM 87.8 °F 99.7 °F 77.0 °F 70% 29.65 in 5.6 mi Calm Calm - N/A   Partly Cloudy
12:30 AM 86.0 °F 99.3 °F 78.8 °F 79% 29.65 in 5.6 mi SW 2.3 mph - N/A   Partly Cloudy
1:00 AM 86.0 °F 99.3 °F 78.8 °F 79% 29.65 in 5.6 mi SW 4.6 mph - N/A   Partly Cloudy
7:00 AM 84.2 °F 94.1 °F 77.0 °F 79% 29.68 in 6.2 mi East 4.6 mph - N/A   Partly Cloudy
7:30 AM 86.0 °F 96.9 °F 77.0 °F 74% 29.68 in 6.2 mi ESE 2.3 mph - N/A   Scattered Clouds
8:00 AM 87.8 °F 99.7 °F 77.0 °F 70% 29.71 in 6.2 mi East 3.5 mph - N/A   Scattered Clouds
8:30 AM 89.6 °F 99.8 °F 75.2 °F 62% 29.71 in 6.2 mi SE 3.5 mph - N/A   Scattered Clouds
9:00 AM 89.6 °F 99.8 °F 75.2 °F 62% 29.71 in 6.2 mi West 5.8 mph - N/A   Scattered Clouds
9:30 AM 91.4 °F 102.5 °F 75.2 °F 59% 29.71 in 6.2 mi West 5.8 mph - N/A   Partly Cloudy
10:00 AM 93.2 °F 102.4 °F 73.4 °F 52% 29.71 in 6.2 mi NNW 3.5 mph - N/A   Partly Cloudy
10:30 AM 95.0 °F 104.5 °F 73.4 °F 49% 29.71 in 6.2 mi Variable 3.5 mph - N/A   Scattered Clouds
11:00 AM 95.0 °F 103.2 °F 71.6 °F 47% 29.71 in 6.2 mi WSW 10.4 mph - N/A   Scattered Clouds
11:30 AM 96.8 °F 105.1 °F 71.6 °F 44% 29.68 in 6.2 mi West 8.1 mph - N/A   Scattered Clouds
12:00 PM 98.6 °F 107.7 °F 71.6 °F 42% 29.68 in 6.2 mi East 3.5 mph - N/A   Scattered Clouds
12:30 PM 98.6 °F 107.7 °F 71.6 °F 42% 29.65 in 6.2 mi NNE 5.8 mph - N/A   Scattered Clouds
1:00 PM 100.4 °F 109.3 °F 71.6 °F 39% 29.65 in 6.2 mi NNW 11.5 mph - N/A   Scattered Clouds
1:30 PM 100.4 °F 107.8 °F 69.8 °F 37% 29.62 in 6.2 mi NNW 6.9 mph - N/A   Scattered Clouds
2:00 PM 100.4 °F 107.8 °F 69.8 °F 37% 29.62 in 6.2 mi East 6.9 mph - N/A   Scattered Clouds
2:30 PM 100.4 °F 107.8 °F 69.8 °F 37% 29.59 in 6.2 mi South 3.5 mph - N/A   Scattered Clouds
3:00 PM 100.4 °F 107.8 °F 69.8 °F 37% 29.59 in 6.2 mi SSE 5.8 mph - N/A   Scattered Clouds
3:30 PM 87.8 °F 97.6 °F 75.2 °F 66% 29.62 in 6.2 mi WSW 18.4 mph 29.9 mph N/A   Mostly Cloudy
4:00 PM 82.4 °F 89.5 °F 75.2 °F 79% 29.62 in 6.2 mi WSW 19.6 mph - N/A Rain , Thunderstorm Thunderstorms and Rain
4:30 PM 82.4 °F 90.9 °F 77.0 °F 84% 29.62 in 5.6 mi SW 18.4 mph - N/A Rain , Thunderstorm Light Thunderstorms and Rain
5:00 PM 82.4 °F 90.9 °F 77.0 °F 84% 29.65 in 5.6 mi SW 18.4 mph - N/A Rain Rain
5:30 PM 82.4 °F 89.5 °F 75.2 °F 79% 29.65 in 6.2 mi SSW 11.5 mph - N/A   Mostly Cloudy
6:00 PM 80.6 °F 86.2 °F 75.2 °F 84% 29.65 in 6.2 mi WSW 11.5 mph - N/A   Mostly Cloudy
6:30 PM 82.4 °F 89.5 °F 75.2 °F 79% 29.68 in 6.2 mi SW 8.1 mph - N/A   Mostly Cloudy
7:00 PM 82.4 °F 89.5 °F 75.2 °F 79% 29.71 in 6.2 mi WSW 4.6 mph - N/A   Mostly Cloudy
7:30 PM 80.6 °F 87.1 °F 77.0 °F 89% 29.71 in 6.2 mi SW 3.5 mph - N/A   Mostly Cloudy
8:00 PM 80.6 °F 87.1 °F 77.0 °F 89% 29.71 in 6.2 mi Variable 2.3 mph - N/A   Mostly Cloudy
8:30 PM 82.4 °F 90.9 °F 77.0 °F 84% 29.71 in 5.6 mi NW 3.5 mph - N/A   Mostly Cloudy
9:00 PM 82.4 °F 90.9 °F 77.0 °F 84% 29.74 in 5.6 mi SE 3.5 mph - N/A   Mostly Cloudy
9:30 PM 82.4 °F 90.9 °F 77.0 °F 84% 29.74 in 5.6 mi East 6.9 mph - N/A   Mostly Cloudy
10:00 PM 82.4 °F 92.4 °F 78.8 °F 89% 29.77 in 5.0 mi NNE 3.5 mph - N/A Rain , Thunderstorm Light Thunderstorms and Rain
10:30 PM 82.4 °F 92.4 °F 78.8 °F 89% 29.74 in 5.0 mi North 5.8 mph - N/A Rain , Thunderstorm Light Thunderstorms and Rain
11:00 PM 80.6 °F 88.1 °F 78.8 °F 94% 29.74 in 5.0 mi Variable 1.2 mph - N/A Rain , Thunderstorm Light Thunderstorms and Rain
11:30 PM 80.6 °F 88.1 °F 78.8 °F 94% 29.74 in 5.6 mi SSE 3.5 mph - N/A   Mostly Cloudy